Wind_Speed
47 46 45 45 44 43 41 40 38 37 35 33 32 30 29 29 28 27 27 26 26 25 25 24 23 23 23 23 22 22 22 22 22 22 21 21 20 20 19 19 19 19 19 19 18 18 17 17 16 15 15 14 13 13 12 11 11 10 10 9 9 8 7 6 5 5 5 6 7 7 8 8 8 9 9 9 9 8 8 9 9 10 10 11 11 12 12 11
48 47 46 45 44 43 42 41 39 37 36 34 32 30 29 29 28 28 27 27 26 26 25 25 24 24 24 23 23 23 22 23 23 22 22 21 21 20 20 20 19 19 19 19 18 18 17 17 16 16 15 14 14 13 12 12 11 11 10 10 9 8 7 6 7 7 7 7 8 8 8 8 8 9 9 9 9 9 9 9 10 11 11 12 13 13 13 13
48 47 46 46 45 44 43 41 40 38 36 34 33 31 30 29 29 28 28 28 27 27 26 26 25 25 24 24 24 24 24 24 24 23 23 22 22 21 21 20 20 20 19 19 18 18 17 17 16 16 15 14 14 13 13 12 11 11 10 9 9 8 8 8 8 8 8 8 8 8 8 8 8 9 9 9 9 9 9 10 10 11 13 14 14 14 14 14
48 47 47 46 45 44 43 42 40 39 37 35 34 32 31 30 30 29 29 29 28 28 27 26 26 25 25 25 25 24 25 25 25 24 24 23 23 22 22 21 21 20 20 19 18 18 18 17 16 16 15 14 14 13 13 12 11 11 10 9 9 8 9 9 8 8 9 8 8 8 8 8 8 9 9 9 9 9 10 10 11 12 13 15 15 16 16 15
49 48 47 46 46 45 44 42 41 40 38 37 35 33 32 31 31 30 30 30 29 29 28 27 26 26 26 25 25 25 26 26 26 25 25 24 24 23 23 22 21 21 20 20 19 18 18 17 16 16 15 15 14 13 13 12 11 11 10 10 9 9 9 8 8 8 8 8 8 8 8 8 8 9 9 9 9 10 11 11 12 13 14 15 16 17 17 17
49 49 48 47 46 46 44 43 42 41 40 38 36 35 33 32 32 31 31 31 31 30 30 29 27 27 27 26 26 26 27 27 26 26 26 25 25 24 23 23 22 22 21 20 19 19 18 18 17 16 16 15 15 14 13 12 11 11 10 10 9 8 8 8 8 8 8 8 7 7 7 8 8 9 10 9 9 11 12 13 14 14 15 16 16 17 17 18
50 50 49 48 47 46 45 44 43 42 41 40 38 37 35 33 32 32 32 32 32 31 31 30 28 28 27 27 27 27 27 27 26 26 26 26 25 25 24 24 23 22 22 21 20 19 19 18 18 17 17 16 15 14 14 13 12 11 10 10 9 8 8 8 8 8 8 7 7 7 7 8 9 10 11 10 10 12 13 14 15 16 16 16 17 18 18 18
51 51 50 49 48 47 46 46 45 44 43 41 40 38 37 35 34 33 33 33 33 32 32 31 30 29 28 28 28 28 28 28 27 27 27 27 26 26 25 25 24 23 22 21 21 20 20 19 19 18 18 17 16 15 14 13 12 11 11 10 9 9 9 8 8 8 8 8 8 8 7 8 9 11 13 12 12 13 14 15 16 17 17 18 18 18 19 19
53 52 51 50 49 48 47 47 46 45 44 43 42 40 38 37 35 34 34 34 34 33 33 32 31 30 29 29 28 29 29 29 29 29 29 28 28 27 26 26 25 24 23 22 21 21 21 20 20 19 18 17 16 16 15 14 13 13 12 11 11 10 10 10 9 9 9 9 9 9 9 9 10 13 14 13 13 14 15 16 17 18 19 19 19 19 20 20
55 54 53 52 51 50 49 48 47 47 46 44 43 41 40 38 37 36 35 35 35 35 34 34 33 31 30 30 29 30 30 30 30 30 30 30 29 28 28 27 26 26 25 24 23 22 22 21 20 20 19 18 17 16 16 15 14 14 13 13 12 12 12 11 11 11 11 11 11 11 10 10 12 15 16 14 14 15 15 17 17 18 19 20 20 20 21 21
57 56 55 54 53 52 50 49 49 48 47 46 45 43 42 40 39 37 37 36 36 36 35 35 34 33 32 31 31 31 31 31 32 32 32 31 30 30 29 29 28 27 26 25 24 23 23 22 21 21 20 19 18 18 17 16 16 15 15 14 14 14 14 13 13 13 13 13 13 12 11 11 14 17 17 15 15 16 17 18 18 19 20 20 21 21 21 21
59 58 56 55 54 53 52 51 50 49 48 48 46 45 44 42 41 39 38 37 37 36 36 36 35 35 34 32 32 32 32 33 33 33 33 33 32 31 31 30 30 29 28 27 26 25 24 23 22 22 21 20 20 19 18 18 18 17 17 16 16 16 16 15 15 15 15 15 15 15 13 13 16 18 18 17 17 18 18 18 19 20 21 21 22 22 22 22
59 59 58 57 56 55 54 53 52 51 50 49 48 47 46 44 43 41 40 39 38 38 37 37 36 36 35 35 34 33 33 34 34 34 34 34 33 33 32 32 31 31 30 29 28 26 25 25 24 23 23 22 21 20 20 19 19 19 19 19 18 18 17 17 17 16 17 17 17 18 14 14 19 19 19 20 19 19 19 20 21 21 22 22 22 23 23 23
59 59 59 58 57 56 55 54 53 52 51 50 49 48 47 46 44 43 42 41 40 39 39 38 38 37 37 36 35 35 34 34 35 35 36 36 35 34 34 33 33 33 32 31 30 28 27 26 26 25 24 23 23 22 21 21 21 21 21 20 20 19 18 18 18 18 18 19 19 20 16 15 21 22 21 22 21 21 21 21 22 22 22 23 23 24 24 24
59 59 59 58 58 57 56 55 54 53 52 51 50 49 48 47 46 44 43 42 41 41 40 40 40 39 39 38 37 37 36 35 36 36 36 37 37 36 35 35 34 34 33 33 32 30 29 29 28 27 26 25 25 24 23 23 23 23 23 22 21 19 19 18 19 19 20 20 20 21 18 16 21 23 23 23 23 22 22 23 23 23 24 24 25 26 26 26
57 58 59 59 58 58 57 56 55 55 54 53 52 51 50 49 48 46 45 44 43 42 42 42 41 41 41 40 39 38 38 37 37 37 37 38 38 38 37 36 36 36 35 34 33 33 31 30 30 29 28 27 27 26 26 25 25 25 24 22 21 20 19 19 19 20 21 21 21 22 20 17 21 24 24 25 24 23 23 24 25 25 26 27 27 27 27 28
55 56 57 58 58 58 58 57 56 56 55 54 54 53 52 51 50 48 47 46 45 44 44 43 43 43 43 42 41 41 40 39 38 37 38 38 39 39 39 38 38 37 37 36 35 34 33 32 32 31 30 29 28 28 28 28 28 27 25 23 22 22 21 20 21 22 23 23 23 24 21 19 22 24 24 25 25 24 24 25 26 26 28 29 29 30 30 29
53 54 55 56 57 57 58 57 57 57 56 55 55 54 53 52 52 50 50 48 48 47 46 45 44 44 44 43 43 43 42 41 39 38 38 39 40 40 41 40 39 39 38 38 37 36 36 34 33 33 32 30 30 31 31 30 29 27 26 25 24 23 23 22 23 24 25 26 25 26 24 21 23 25 26 27 26 25 25 26 27 28 29 30 31 31 31 30
51 52 53 54 55 56 57 57 57 57 56 56 56 55 55 54 53 52 51 51 50 49 48 47 46 46 45 44 44 44 43 43 41 40 39 39 40 41 42 42 41 41 40 40 39 38 37 36 36 35 33 32 34 34 33 31 30 29 28 27 26 25 25 25 26 27 27 28 28 28 28 25 24 25 27 29 28 26 26 28 29 29 30 32 32 32 32 30
50 51 51 53 53 54 55 56 56 56 56 56 56 56 56 55 55 54 53 52 52 51 50 49 48 47 46 45 45 45 45 45 44 42 42 41 41 42 43 44 43 43 42 41 40 40 39 39 38 36 35 36 37 36 34 33 32 31 30 29 29 28 27 27 29 29 30 32 30 29 31 29 27 27 28 30 30 28 28 30 30 30 31 33 34 34 33 31
49 50 50 50 51 52 53 54 55 55 56 55 56 56 55 55 55 55 54 54 54 53 52 51 49 48 47 46 46 46 46 46 45 44 43 42 42 42 44 44 45 44 44 43 42 42 41 41 39 37 37 38 38 37 36 35 34 33 32 32 31 30 30 30 31 31 32 34 32 32 34 32 31 31 29 30 30 30 31 31 31 30 32 34 35 34 33 33
51 50 50 50 50 50 51 53 54 54 55 55 55 55 55 55 55 54 54 54 54 54 53 52 51 49 48 47 47 46 46 46 46 46 45 44 43 43 43 44 45 45 45 45 45 44 44 43 41 40 41 41 40 39 37 37 36 35 35 34 34 33 32 33 33 34 35 36 35 35 36 35 35 35 32 31 31 31 31 31 31 31 33 34 34 34 33 32
54 52 51 50 49 49 49 51 52 52 53 53 53 54 54 54 54 54 54 54 55 55 54 53 52 51 49 48 47 47 47 46 46 46 46 45 45 45 44 44 45 46 47 47 47 47 46 45 44 44 44 43 42 41 40 39 37 37 37 36 36 35 35 35 35 35 36 37 38 38 39 38 37 38 35 32 33 32 32 31 31 32 33 34 34 32 30 29
57 55 54 52 51 50 49 49 50 49 50 51 51 52 52 53 53 54 54 55 56 55 55 54 54 52 51 50 49 48 48 48 47 47 47 47 47 47 46 46 46 46 47 48 49 49 48 48 47 46 46 44 43 42 41 40 40 40 39 38 38 37 37 37 37 37 37 38 39 40 43 41 40 40 35 33 35 34 33 32 32 32 34 35 33 30 28 27
59 57 57 55 54 52 51 50 49 49 49 48 49 50 50 51 51 52 53 55 57 56 56 55 54 53 52 51 51 50 50 49 49 49 48 48 48 49 49 48 48 48 48 49 50 51 50 50 50 48 47 46 44 43 43 43 42 41 41 40 40 39 39 39 39 40 39 39 39 41 45 44 42 41 36 35 36 35 33 33 32 33 35 35 34 29 27 26
61 60 58 58 57 55 54 52 51 50 49 48 49 48 49 49 49 51 52 55 58 56 55 56 55 54 53 52 51 51 52 51 50 50 50 50 51 50 50 50 50 49 49 49 51 52 52 52 51 50 48 46 45 45 44 44 44 44 43 42 41 40 40 40 40 41 41 42 41 43 47 47 46 44 40 39 38 35 34 33 32 33 34 35 34 30 28 28
63 62 61 60 58 57 56 54 53 52 51 50 50 49 49 49 49 50 50 54 59 56 53 55 56 54 53 52 52 52 53 51 50 52 52 52 52 52 52 52 51 50 50 50 51 51 51 51 51 50 49 49 48 47 45 45 46 46 45 43 42 41 42 42 41 42 42 43 44 46 49 51 50 46 44 43 40 37 35 33 32 32 33 34 33 30 30 29
63 63 63 61 60 59 57 56 54 53 53 53 52 51 52 51 51 51 51 55 60 57 53 53 55 55 53 52 52 53 53 51 50 51 51 52 53 53 53 52 51 51 51 51 51 51 51 51 51 51 52 52 51 48 46 46 46 46 45 44 43 42 42 42 42 43 43 44 47 49 50 52 53 50 49 47 41 39 37 34 34 34 34 33 31 30 30 29
62 62 62 62 61 61 59 57 55 55 55 54 54 54 54 53 53 53 53 56 60 58 55 53 53 54 54 53 53 53 53 53 52 52 51 52 52 53 53 52 51 52 52 52 52 51 52 52 52 53 53 53 51 48 47 46 46 46 46 46 45 44 44 43 43 43 44 47 50 50 50 52 54 54 52 47 42 41 40 38 37 36 35 32 28 28 29 30
59 60 61 61 61 60 59 58 58 58 57 56 56 56 55 56 55 55 57 57 57 58 57 54 53 53 53 53 53 53 53 53 52 51 51 51 51 51 51 51 51 52 52 52 52 53 53 52 52 53 53 52 50 49 48 47 47 47 47 47 46 45 44 43 44 44 47 52 52 50 51 53 57 58 52 46 44 42 42 41 40 38 35 31 28 28 29 31
53 56 58 59 59 59 58 58 59 59 59 59 58 58 58 58 58 59 59 55 54 58 58 54 52 52 52 52 52 51 52 52 52 51 50 49 50 50 50 50 50 51 51 51 51 52 52 52 52 52 51 50 50 50 49 48 48 48 47 46 45 45 45 45 47 48 51 54 52 51 52 55 60 60 52 48 45 43 43 43 43 41 38 33 30 30 31 33
51 53 54 54 55 57 56 57 58 59 61 61 61 62 61 61 62 63 60 54 55 60 58 53 52 51 52 52 52 51 51 51 51 51 50 48 48 48 48 48 47 48 49 48 48 49 50 49 49 50 50 50 50 50 50 49 48 46 45 44 44 45 46 49 51 51 52 53 52 52 54 58 62 58 51 48 47 45 44 44 44 44 42 37 34 34 34 35
50 52 54 53 52 53 54 56 58 60 61 62 63 64 64 65 66 62 59 59 60 61 58 55 54 53 53 53 52 52 51 51 51 51 51 50 49 48 47 47 47 48 48 47 47 48 48 49 49 50 50 50 50 49 48 47 45 44 44 44 45 47 49 52 52 52 53 52 51 52 56 61 62 56 51 48 47 47 47 45 44 44 43 40 38 38 38 38
48 51 53 53 52 51 51 54 57 59 60 62 64 65 66 68 64 58 57 59 60 61 59 59 58 56 55 54 53 53 52 52 51 51 51 51 50 49 48 48 48 48 48 48 48 48 49 49 49 49 50 49 49 48 46 45 45 46 46 46 48 49 50 51 50 51 53 53 53 55 59 61 59 55 53 50 47 47 47 46 45 44 44 42 40 41 42 41
45 47 49 51 53 52 51 52 54 55 57 60 63 66 68 66 59 54 55 55 56 58 59 62 63 60 58 56 55 54 54 53 52 52 52 52 51 49 48 47 47 47 47 48 48 48 49 49 47 47 48 47 46 46 46 46 46 47 47 49 50 49 48 49 50 52 53 55 58 59 61 60 58 56 55 52 49 47 47 47 46 45 44 43 42 44 45 42
44 44 44 46 48 49 51 53 53 54 56 58 63 66 64 59 55 53 53 53 55 56 56 60 63 61 60 59 57 57 56 55 54 54 54 53 52 51 49 47 47 47 47 48 49 49 50 49 48 47 47 46 47 47 47 47 48 49 50 51 50 48 48 49 51 52 54 57 60 61 62 60 58 56 54 51 49 48 49 49 47 45 44 43 43 43 44 42
47 46 44 43 44 45 50 53 54 56 59 61 64 63 57 53 53 53 53 52 53 53 55 59 60 59 59 58 58 58 57 57 56 56 55 54 54 52 50 49 49 48 48 48 49 50 51 51 50 50 50 49 49 50 50 50 51 52 53 51 50 50 51 52 53 54 56 59 61 62 62 62 61 57 51 49 50 50 50 49 47 46 45 44 41 38 40 41
49 49 48 45 43 44 48 51 54 57 62 66 66 60 55 52 51 53 55 54 53 53 55 57 58 59 58 57 56 57 58 59 58 57 56 55 55 53 51 51 50 49 49 49 51 51 52 53 53 52 52 52 51 52 53 53 54 54 53 52 51 52 53 53 54 55 56 59 62 63 63 63 60 55 50 50 52 52 51 49 47 48 47 42 36 34 36 39
52 51 51 48 45 44 46 50 54 57 61 65 65 59 54 52 51 53 54 54 54 56 57 57 57 58 59 57 55 55 56 57 58 59 59 59 58 55 54 53 52 51 51 51 52 52 52 53 54 55 55 54 54 55 55 55 55 54 53 53 54 54 56 56 56 57 57 59 61 63 65 62 55 51 50 52 53 52 51 49 47 46 44 37 31 31 34 37
58 55 53 51 50 47 46 49 53 55 57 59 58 56 54 55 56 56 54 54 56 57 57 58 58 59 59 57 56 56 55 55 55 57 59 60 60 58 57 56 55 55 54 53 54 53 54 56 57 59 59 59 58 57 56 55 54 54 54 56 57 57 58 58 58 59 58 59 59 61 64 59 49 48 50 50 51 50 49 47 44 40 38 35 31 30 34 37
62 60 56 55 55 53 50 50 52 55 56 54 52 52 55 57 58 56 55 56 57 56 56 58 60 60 59 58 57 56 56 56 56 55 56 57 57 58 58 57 57 56 56 56 57 57 58 59 59 61 62 62 60 58 57 57 57 57 57 59 59 59 59 59 60 61 59 58 57 60 64 56 44 45 49 48 50 50 47 45 43 39 38 37 33 30 34 39
63 63 61 60 60 58 57 55 55 55 56 54 51 51 53 54 55 55 56 57 57 57 56 57 59 60 60 60 58 57 58 58 58 57 56 55 55 54 55 55 55 55 55 57 58 57 57 58 60 63 64 64 62 62 62 62 62 62 62 63 63 63 63 61 61 60 59 60 59 62 66 55 43 44 48 49 50 49 49 47 43 41 42 40 34 31 37 42
64 63 63 65 65 63 63 63 61 59 59 57 54 53 52 52 53 56 58 58 59 59 59 58 58 59 60 60 61 61 60 59 60 59 57 55 54 53 54 55 55 55 55 55 56 57 57 59 61 63 65 65 65 66 66 66 67 68 68 67 66 65 63 61 60 59 60 62 61 64 66 56 45 46 48 50 51 49 50 49 44 43 44 42 38 36 40 44
66 65 65 67 67 66 68 68 67 65 62 61 59 56 53 53 54 55 56 57 57 57 58 59 60 60 60 60 62 63 63 63 63 61 59 59 57 55 56 57 57 57 57 56 56 56 57 58 58 60 62 65 67 69 69 69 70 69 68 66 64 62 60 60 60 58 59 61 59 62 65 57 49 49 50 51 52 50 51 51 48 45 45 43 41 41 43 45
69 68 68 68 68 68 69 69 70 70 67 65 64 59 56 56 55 55 54 54 54 55 54 55 58 60 60 60 62 63 64 64 63 62 62 61 60 59 60 61 61 61 60 60 59 58 59 58 58 59 61 64 68 69 69 67 65 64 63 62 60 59 57 57 56 56 59 61 62 65 66 59 53 55 54 53 53 54 54 52 50 48 47 44 43 43 46 47
71 71 71 70 70 70 70 69 70 72 72 70 68 64 61 59 57 56 57 54 52 53 53 52 54 56 57 58 59 61 63 63 62 63 63 62 61 60 60 61 62 62 63 63 62 62 62 62 62 62 63 64 65 65 64 62 62 61 61 60 59 58 57 57 58 61 63 64 66 67 65 61 58 57 56 54 54 55 55 54 52 50 48 46 45 45 47 48
71 73 73 72 71 72 72 71 71 72 73 73 73 71 67 63 59 59 60 57 52 51 53 53 53 54 55 54 54 57 60 61 61 61 61 60 59 59 60 60 59 60 61 62 63 63 65 67 66 66 66 66 63 63 64 64 64 62 61 60 60 59 59 60 63 64 63 65 67 64 62 63 59 55 54 53 52 54 56 55 52 50 48 48 48 48 48 48
68 71 73 73 73 73 74 73 72 72 72 73 75 74 72 69 67 65 62 58 56 55 56 56 54 53 53 51 51 53 55 56 58 59 58 58 58 59 60 60 59 59 59 60 61 62 64 66 66 67 68 66 64 64 66 66 65 64 63 62 61 61 62 64 65 65 65 68 70 64 62 64 59 53 53 52 52 56 56 53 50 48 47 48 50 50 49 46
66 68 71 72 73 74 75 75 74 73 73 74 74 74 74 73 72 70 66 63 61 59 59 60 57 54 53 52 51 53 54 54 55 56 56 55 56 58 59 58 58 58 58 58 59 61 63 63 63 65 66 65 63 63 66 67 68 69 69 68 67 67 68 68 68 67 69 73 71 65 65 64 57 53 53 52 54 55 53 51 50 48 47 48 50 50 48 46
66 66 68 70 72 73 74 76 76 75 74 74 74 74 74 73 72 71 71 69 67 62 61 61 59 56 56 56 55 55 55 54 55 54 53 53 54 55 56 57 56 55 55 56 55 57 58 57 56 58 60 60 56 56 58 60 62 65 67 69 69 68 69 70 69 68 69 71 67 63 65 62 55 52 51 52 53 53 51 51 50 47 47 49 50 49 49 48
67 67 68 69 70 71 72 74 75 76 75 74 74 75 75 74 71 71 72 73 72 68 66 63 59 57 58 59 59 58 55 54 55 54 53 52 52 52 53 54 53 54 54 53 52 52 52 50 48 49 54 54 49 49 52 53 54 57 58 58 59 62 65 67 66 65 65 66 63 62 64 59 51 49 50 51 52 52 51 49 46 46 48 49 49 49 49 46
68 69 69 70 71 70 70 72 73 75 75 72 70 71 75 76 74 72 73 74 74 74 72 68 64 63 62 61 59 58 57 56 56 56 55 54 54 54 55 54 54 54 54 52 52 52 51 50 47 48 53 53 49 51 54 53 56 58 54 49 51 54 56 57 58 59 60 60 60 61 60 54 49 51 53 54 52 51 50 47 45 47 48 48 49 48 46 44
Wind_Direction
196 196 196 195 195 195 195 195 196 197 198 199 200 201 202 203 203 204 204 203 203 203 204 204 204 205 207 208 209 209 208 209 211 213 216 218 218 215 212 209 208 207 206 207 207 207 207 207 206 207 208 207 206 207 207 206 207 210 212 214 222 231 235 238 245 252 260 269 280 288 295 299 301 302 302 306 308 310 316 321 327 333 337 339 337 334 332 329
199 198 198 197 197 197 197 198 198 199 200 201 203 204 205 206 206 206 206 206 206 206 206 206 206 207 208 210 211 211 211 213 215 216 217 216 213 209 206 204 203 202 202 202 202 203 204 205 205 207 208 208 207 207 206 205 206 208 211 215 223 233 241 246 253 261 267 272 277 284 289 293 295 294 295 300 303 307 314 317 322 328 330 332 331 329 328 326
201 201 201 200 200 200 200 200 201 201 202 203 205 206 207 208 208 209 208 208 208 208 208 208 208 208 209 211 212 212 213 215 216 217 215 212 208 206 204 203 201 201 201 201 201 202 204 205 206 207 207 207 207 207 206 206 207 208 212 218 227 238 249 256 262 268 271 273 278 282 286 288 288 288 291 295 300 307 311 315 321 325 325 326 326 325 324 323
204 204 204 203 202 202 202 202 203 203 204 205 206 208 209 210 210 210 210 210 210 210 210 210 210 210 211 212 213 213 214 216 216 215 212 209 206 205 204 203 202 202 202 202 202 203 205 207 206 206 206 207 207 208 207 207 208 211 217 225 234 244 253 261 265 268 272 278 283 286 286 287 286 287 290 294 301 307 310 316 320 322 322 321 322 322 321 321
206 207 206 206 205 205 205 205 205 206 207 208 209 210 210 211 212 212 212 212 212 212 212 212 212 211 212 213 213 213 214 215 214 212 210 207 206 206 205 204 203 203 203 203 203 203 205 207 207 206 207 207 207 206 207 209 212 217 224 231 240 246 252 260 265 271 279 287 292 291 291 291 290 291 293 298 305 308 312 317 318 318 319 319 319 319 319 318
209 209 209 209 208 208 208 207 208 208 209 210 211 212 213 213 214 214 214 213 213 213 213 214 214 213 213 213 213 214 215 215 213 211 209 207 207 206 205 204 204 204 204 204 203 203 205 206 206 206 206 206 207 208 210 213 217 222 227 232 237 243 250 258 268 277 286 292 296 296 298 298 297 297 297 303 309 309 314 317 316 316 317 317 317 317 316 315
211 211 211 211 211 211 210 210 210 211 211 213 214 215 215 216 216 216 216 215 215 214 215 215 216 215 215 214 214 216 216 215 213 211 209 207 207 207 206 205 205 204 204 204 204 204 205 206 206 206 207 207 210 211 214 217 219 222 226 230 236 242 250 260 269 279 286 293 298 299 303 301 302 300 298 307 313 312 315 315 315 316 316 315 315 314 313 313
213 213 213 213 213 213 213 213 213 213 214 214 216 216 217 218 218 219 219 218 217 216 216 216 217 217 217 216 216 217 218 217 214 211 209 208 208 208 208 207 205 205 205 205 205 205 206 207 207 208 209 210 213 214 215 217 219 221 226 231 237 245 252 259 268 277 284 291 295 299 302 300 302 298 297 310 316 312 314 315 315 315 315 315 314 313 312 311
214 214 215 215 215 215 215 215 215 215 216 216 217 218 219 220 220 221 221 221 220 219 218 217 218 218 219 219 218 219 219 218 215 212 210 209 210 210 210 208 206 206 207 207 208 209 209 210 210 212 213 213 215 216 216 218 221 224 229 234 241 249 255 260 267 274 280 287 290 294 298 299 300 295 298 312 314 312 314 314 315 316 315 315 314 313 311 309
215 215 216 216 217 217 217 217 217 217 217 218 218 219 220 221 222 223 223 223 222 221 220 219 219 219 220 220 220 220 220 219 217 214 211 211 212 212 211 210 208 208 209 209 211 212 213 213 213 214 216 217 218 219 220 222 226 229 233 238 244 252 257 262 267 271 277 283 286 289 294 298 298 293 298 310 310 310 314 314 316 316 315 315 313 312 310 309
216 216 217 217 218 218 218 219 219 219 219 219 220 220 221 222 223 224 224 224 224 223 223 222 221 220 220 221 222 222 221 220 218 216 213 213 214 214 213 212 211 211 212 212 213 215 216 217 217 217 218 220 222 223 225 228 231 235 238 243 248 253 258 262 266 270 275 279 280 284 291 296 293 290 297 306 306 308 312 314 316 316 316 315 313 311 309 308
217 217 218 218 218 219 219 220 220 220 220 220 221 221 221 222 223 224 224 225 225 225 225 224 223 222 222 222 223 223 222 221 220 218 216 215 215 216 216 215 214 214 214 214 215 217 218 220 221 221 222 224 226 227 230 232 236 240 243 246 250 254 258 263 266 269 272 274 277 280 286 291 287 288 297 301 302 306 310 313 315 317 317 316 313 312 309 308
218 218 219 219 220 220 221 221 222 222 222 222 222 222 222 222 223 224 224 225 226 226 226 226 226 225 224 224 225 225 224 223 222 221 219 217 217 218 218 218 217 216 217 217 218 219 220 222 224 225 227 228 230 231 234 237 240 243 246 249 253 257 261 264 266 269 271 273 275 277 281 285 285 289 295 297 300 304 308 312 314 316 317 317 315 312 310 308
220 220 220 220 221 221 222 222 223 224 224 224 223 223 223 224 224 224 225 225 226 227 227 227 227 227 226 226 226 226 226 225 224 223 221 220 219 219 219 220 220 219 219 220 220 221 222 224 226 229 230 232 234 235 238 241 244 247 249 251 254 258 262 266 269 271 272 273 274 277 279 282 285 290 292 294 298 303 307 310 311 315 316 315 315 313 311 309
221 221 221 221 222 222 222 223 224 224 225 225 225 225 225 225 226 226 226 227 228 228 228 228 228 228 228 228 227 227 227 227 226 225 223 222 222 221 221 221 222 222 222 223 223 223 225 226 228 231 233 235 237 239 241 244 247 249 250 252 256 260 263 267 271 272 273 274 276 278 281 283 285 289 291 293 297 301 305 307 309 312 313 314 314 313 312 309
220 221 222 223 223 223 223 224 224 225 225 226 226 226 227 227 228 228 228 229 230 230 230 230 230 230 230 229 228 229 228 228 228 226 225 224 224 223 223 223 224 224 225 226 226 226 227 228 230 232 234 237 239 241 244 246 248 250 251 254 259 262 264 266 269 272 274 276 278 280 284 286 285 287 290 293 296 299 303 304 306 309 310 313 313 312 310 307
220 221 222 223 224 224 224 224 225 225 226 227 227 228 228 228 229 229 230 230 231 232 232 232 232 231 231 231 230 230 230 229 229 228 227 226 226 225 225 225 225 226 227 227 228 229 229 230 232 234 236 238 241 243 245 246 248 251 253 256 259 261 264 267 270 273 275 277 279 281 286 288 285 286 291 293 295 299 302 303 304 307 310 312 312 311 308 306
220 221 222 223 224 224 225 225 226 226 227 228 228 229 230 230 230 231 231 232 232 232 233 233 233 233 232 232 232 232 232 231 230 230 229 228 227 227 227 227 227 227 228 229 229 230 231 232 234 235 237 239 242 244 245 247 249 252 254 256 258 261 265 268 271 273 275 278 280 283 286 286 286 289 293 293 296 300 302 302 303 307 310 311 310 309 307 304
219 220 221 222 224 225 225 226 226 227 227 228 229 230 230 231 232 232 233 233 233 233 233 233 233 233 233 233 233 233 233 232 231 230 230 230 229 229 229 229 229 229 230 230 231 232 233 234 235 237 238 240 242 244 246 248 250 252 254 256 259 263 265 267 270 273 276 278 280 284 286 285 287 291 293 294 297 302 303 301 304 308 311 310 309 308 305 303
219 220 220 221 223 224 225 226 227 227 228 228 229 230 230 231 232 232 233 233 233 233 233 234 234 233 233 233 233 233 232 232 231 231 231 231 230 230 230 230 230 231 231 232 233 234 235 236 237 238 239 240 243 245 247 248 250 252 255 257 260 262 264 266 269 272 275 276 279 283 285 286 288 289 291 294 299 302 302 302 305 309 310 310 308 306 303 301
219 219 219 220 221 222 224 225 226 227 228 229 229 230 230 231 231 232 232 233 233 233 233 233 234 234 234 233 233 233 232 232 232 232 232 232 232 232 232 232 232 233 233 234 235 236 236 237 238 239 240 241 243 245 247 248 251 253 256 258 260 262 263 265 268 271 273 276 280 282 284 286 288 287 289 293 298 301 301 303 307 309 310 310 307 305 303 303
217 219 219 220 220 222 223 224 225 226 228 229 229 230 230 231 231 232 232 232 233 233 233 234 234 234 235 234 234 233 232 232 232 232 232 233 234 235 235 235 235 235 235 235 236 236 237 238 239 240 241 243 244 245 247 249 252 254 256 258 260 261 263 264 267 270 273 277 280 282 284 285 286 286 289 293 296 298 300 302 306 310 310 308 306 305 305 305
215 217 219 219 220 221 222 224 224 226 227 228 229 229 230 231 232 232 232 233 233 233 234 234 234 235 235 236 235 234 233 233 233 233 234 234 235 236 236 236 236 236 236 236 237 238 238 239 240 241 242 243 245 247 248 250 252 254 256 258 260 261 263 264 267 270 273 277 281 283 283 283 283 285 289 293 295 297 300 303 307 310 308 306 306 307 306 304
217 216 217 218 219 220 222 223 224 225 226 227 228 229 230 231 231 232 233 233 233 233 234 234 235 235 236 237 236 236 235 234 234 235 235 235 236 237 237 237 238 238 238 238 238 238 239 240 241 242 243 244 246 248 250 251 252 254 256 258 259 261 263 265 268 270 273 276 280 284 284 282 281 283 287 292 294 297 300 304 309 309 306 307 309 306 303 302
221 219 218 218 218 219 220 222 224 225 226 227 228 229 230 231 231 232 233 234 233 233 234 234 235 235 236 237 238 238 237 236 236 237 238 238 238 238 238 239 239 240 240 240 240 239 240 241 242 243 245 246 247 249 251 252 253 254 255 257 259 261 264 267 269 271 274 275 278 282 283 283 282 283 287 291 292 296 301 306 308 306 306 310 309 303 298 299
224 223 222 220 219 219 219 220 222 223 225 226 228 228 230 231 232 233 234 235 233 231 233 234 235 235 236 238 239 239 239 238 238 240 240 240 240 240 240 241 241 241 242 242 242 241 241 243 244 245 246 247 249 250 251 252 253 254 255 257 259 262 264 267 269 271 274 275 277 279 280 282 283 285 289 289 290 295 302 305 304 304 307 309 306 299 294 295
226 225 225 224 223 222 220 220 221 222 224 225 226 227 229 230 231 232 234 236 234 231 232 234 235 236 236 237 239 239 240 240 241 242 242 242 243 243 243 243 243 244 245 245 244 243 244 245 245 246 247 248 248 249 251 252 253 254 256 258 260 263 265 267 269 271 272 275 278 278 280 282 283 285 288 288 290 298 302 302 301 303 306 305 301 293 290 293
229 228 227 227 226 226 224 222 223 223 224 225 226 227 228 229 230 231 233 235 234 231 231 234 236 236 236 236 237 239 240 239 240 241 242 243 244 244 244 244 245 245 246 246 246 245 245 245 245 245 246 247 247 248 250 252 254 256 258 260 262 263 264 266 267 269 271 274 277 278 280 282 283 285 287 289 295 301 301 300 302 304 305 303 296 287 286 290
232 231 230 229 228 228 228 227 226 226 226 227 227 228 229 229 230 231 232 234 234 232 232 232 235 236 237 237 237 239 240 239 239 240 241 242 242 243 244 244 245 245 245 246 246 245 245 245 245 245 246 247 248 249 250 253 255 257 259 261 262 263 264 265 266 269 271 273 276 278 279 281 284 283 284 291 298 300 300 301 302 304 305 302 292 283 284 286
233 234 234 233 232 231 231 230 229 229 229 229 229 230 230 230 231 231 233 234 235 235 233 231 232 235 237 238 238 239 240 240 240 240 240 241 242 243 243 243 244 245 245 245 245 245 246 246 246 246 247 248 249 251 252 254 256 258 259 260 261 263 264 265 267 269 270 271 274 277 278 281 282 281 285 293 297 298 300 301 302 304 303 298 290 284 283 285
232 233 235 236 235 234 233 233 232 232 231 230 231 231 231 232 232 232 234 236 237 238 236 233 232 234 236 238 238 238 239 240 241 241 242 242 243 244 244 245 245 246 246 247 247 248 248 248 248 249 249 249 250 251 252 253 255 256 257 259 262 264 265 266 267 267 267 270 273 276 277 279 279 280 288 294 296 298 299 300 303 303 300 295 289 285 285 288
231 232 233 234 234 234 234 234 235 235 234 233 232 232 232 233 233 233 234 236 237 239 238 236 235 234 235 237 237 237 238 239 240 241 242 242 243 244 245 247 248 249 249 249 250 250 250 250 250 250 249 249 249 250 251 252 254 256 258 260 262 264 264 264 264 264 266 270 274 275 277 277 277 281 289 293 295 297 297 299 301 300 298 294 290 289 291 293
229 231 232 232 232 232 232 233 235 236 238 237 236 235 234 234 235 235 236 236 237 239 240 239 237 235 235 236 237 238 238 239 239 240 241 241 241 241 242 244 245 246 248 248 249 249 249 248 248 248 248 248 248 249 250 252 254 256 257 259 260 261 262 262 264 266 269 271 273 274 274 275 278 284 289 291 293 295 296 298 299 297 296 295 294 294 295 296
226 228 231 232 233 232 230 231 234 236 238 240 240 239 237 236 238 239 239 238 239 241 242 241 240 237 236 236 237 238 239 239 240 241 242 242 241 241 241 243 244 246 248 248 248 249 249 249 249 250 250 249 250 251 252 253 255 255 256 257 258 260 263 265 268 270 271 271 271 271 273 276 281 287 288 289 290 293 295 296 296 295 295 295 297 297 297 296
223 224 227 229 231 230 228 229 232 234 236 239 241 240 240 240 241 241 241 241 241 242 242 243 242 240 238 237 237 238 239 240 240 241 242 243 244 243 243 244 246 247 248 250 251 252 253 253 252 252 253 253 254 254 254 255 255 256 256 257 258 261 264 267 267 268 270 270 271 273 275 278 283 285 286 288 290 292 293 294 294 293 294 296 298 298 297 295
221 221 222 227 229 228 227 227 230 233 235 237 239 240 240 242 242 242 242 242 243 243 244 245 246 244 242 240 238 238 239 240 241 241 241 243 244 244 244 245 246 246 247 249 251 252 253 254 253 253 253 253 253 254 254 254 255 255 255 256 258 260 262 264 265 266 268 270 272 275 277 280 282 281 282 287 290 291 291 292 292 292 293 295 297 297 295 293
221 220 219 223 228 228 226 226 229 235 238 239 240 240 242 243 243 242 242 242 243 244 244 246 247 247 245 244 242 241 241 241 242 242 242 243 243 244 245 246 246 247 248 249 251 252 253 253 252 253 252 251 252 253 253 253 254 255 256 257 259 260 260 263 265 267 268 270 273 275 277 279 280 279 283 288 289 289 290 291 291 292 294 296 297 293 288 288
220 219 216 218 224 226 226 226 228 232 236 238 239 239 240 241 241 241 241 241 243 243 243 244 245 246 245 244 243 242 242 242 242 243 243 243 244 244 245 246 247 248 249 250 250 251 252 253 253 253 253 253 252 252 253 254 255 256 258 259 259 261 262 264 265 267 269 270 272 274 276 277 278 281 286 288 288 288 289 289 291 293 294 296 296 289 284 285
221 218 214 215 219 221 223 223 223 226 229 233 237 238 238 239 238 238 239 239 240 241 241 242 243 244 244 242 241 241 241 241 241 242 242 243 243 243 243 245 246 247 248 249 250 250 251 253 253 252 252 253 252 252 252 253 255 257 258 259 260 261 262 263 264 266 268 270 272 274 275 276 279 284 286 285 285 287 288 290 293 292 292 293 293 288 286 288
225 220 213 214 218 217 218 221 224 229 231 230 233 235 236 237 237 238 239 240 241 241 241 241 241 242 243 243 242 241 242 241 240 240 241 241 241 241 241 242 243 245 246 248 249 250 250 250 251 251 251 252 252 253 254 255 257 258 258 258 259 260 262 263 265 265 266 268 270 274 277 278 281 284 283 283 284 285 289 294 293 289 287 291 292 291 290 290
227 223 216 216 220 218 217 222 228 233 235 233 232 232 233 234 236 237 239 240 240 240 240 240 240 240 242 244 244 243 243 243 241 240 240 239 239 240 240 242 244 245 247 248 249 250 251 251 252 252 252 253 254 255 256 256 256 256 257 258 259 260 261 262 263 264 266 269 272 276 278 278 279 282 282 283 284 286 291 293 291 287 286 290 293 293 292 290
228 226 221 221 224 221 218 222 227 232 235 234 232 232 232 232 233 234 236 238 239 238 238 238 239 239 240 242 244 243 242 242 241 241 240 239 238 239 240 243 245 246 247 249 249 250 251 252 252 252 252 253 253 254 254 255 256 256 257 257 258 259 260 261 264 267 270 273 274 276 276 275 276 279 280 281 282 287 290 290 287 287 288 290 293 293 291 292
229 227 224 225 226 225 222 222 226 232 235 234 232 233 232 231 231 231 233 237 240 241 240 238 237 238 239 240 242 242 242 242 242 242 242 241 238 238 240 243 244 245 246 248 248 249 250 250 251 252 253 253 253 253 254 255 255 255 256 258 259 261 263 265 267 269 270 271 273 275 275 274 274 275 277 278 281 286 288 286 285 286 287 290 291 292 294 296
229 227 226 226 228 228 227 225 225 228 232 233 233 234 232 231 230 230 232 235 239 240 240 239 238 238 239 240 241 243 244 245 246 246 245 245 242 240 242 245 246 247 248 249 250 250 251 252 253 253 253 253 253 253 253 254 255 256 258 260 262 264 266 267 268 268 268 269 271 271 270 272 275 276 276 278 281 283 282 283 284 285 286 286 288 294 299 299
230 229 228 228 229 230 230 229 229 229 229 230 232 232 233 233 231 229 231 234 237 238 237 237 237 239 241 241 242 244 245 246 247 247 246 247 245 244 245 247 248 249 250 251 251 251 251 251 251 252 252 251 251 252 254 256 258 259 260 261 263 264 264 265 266 266 266 267 267 266 269 275 277 276 277 278 279 280 279 280 282 283 283 284 289 297 300 296
231 230 229 229 230 231 231 230 231 232 231 231 232 231 231 232 231 231 231 232 234 237 238 236 234 236 239 240 243 245 246 247 248 248 247 247 246 245 245 247 248 248 249 250 251 252 252 251 250 250 251 250 251 254 256 257 258 259 259 259 260 260 261 263 262 263 266 268 267 268 272 275 276 276 277 277 277 277 278 277 278 281 283 286 291 296 294 290
231 230 230 230 231 232 232 231 231 232 232 233 234 233 231 231 230 231 232 232 232 235 237 238 235 234 236 238 241 244 245 246 247 248 248 248 247 247 246 246 247 248 249 251 252 252 253 253 251 251 252 252 253 256 257 258 258 259 259 258 259 259 260 260 261 264 267 267 267 272 274 274 274 275 275 274 275 275 275 275 278 282 285 287 290 290 288 287
233 232 231 231 232 232 233 233 233 233 233 234 235 235 234 233 232 233 232 232 233 234 236 238 237 235 236 237 241 241 240 240 242 243 245 246 246 247 246 246 247 248 249 250 252 254 256 255 254 255 256 256 256 257 258 259 259 260 260 259 259 259 259 260 263 266 266 265 268 272 272 271 273 274 273 273 274 274 275 278 281 283 284 285 285 284 285 285
233 233 232 232 232 233 233 233 234 233 233 234 236 236 236 235 235 236 235 233 234 235 236 238 238 237 237 238 241 241 237 237 239 241 242 243 244 245 247 248 249 250 251 252 252 255 257 257 258 259 260 259 258 258 259 259 258 258 258 259 259 260 261 263 265 266 265 265 267 269 269 270 273 273 273 274 274 275 278 280 281 281 281 280 280 282 283 281
235 234 234 234 234 233 233 233 234 234 234 234 236 236 236 237 236 237 237 237 236 236 237 238 238 239 239 239 241 242 239 239 242 242 241 242 243 245 248 250 252 254 254 255 255 255 257 259 259 260 261 259 257 256 257 257 257 257 256 257 258 259 261 261 262 263 264 266 268 269 269 269 270 272 275 276 276 276 276 276 277 277 276 275 277 278 278 277
236 236 235 236 236 234 234 234 234 235 234 235 236 236 236 236 237 237 238 238 238 237 238 238 237 239 241 241 243 244 242 243 244 243 242 242 244 246 248 251 252 253 252 252 254 254 254 256 255 255 257 255 253 252 253 255 257 256 254 254 257 259 260 260 261 263 265 267 268 268 267 268 272 274 274 273 272 272 271 271 271 269 269 271 273 274 274 275
237 237 237 237 237 236 235 234 234 235 234 234 236 237 237 237 236 236 237 237 237 237 237 238 238 239 240 241 243 244 244 244 244 242 242 243 244 244 245 244 244 245 245 247 250 251 250 251 252 253 255 255 252 252 253 254 255 254 253 255 260 262 262 262 262 262 263 264 265 265 266 269 272 271 270 269 268 268 269 269 268 267 268 270 270 270 270 272
Height
5793 5796 5799 5802 5804 5807 5809 5812 5814 5816 5819 5821 5823 5825 5827 5829 5832 5834 5836 5838 5839 5841 5843 5845 5847 5848 5849 5851 5852 5854 5856 5857 5859 5860 5862 5863 5865 5866 5867 5868 5870 5871 5872 5874 5875 5876 5877 5879 5880 5881 5883 5884 5885 5886 5887 5888 5888 5889 5890 5890 5891 5891 5892 5893 5894 5894 5895 5895 5895 5895 5895 5895 5895 5895 5895 5895 5895 5896 5896 5895 5895 5895 5895 5894 5894 5894 5893 5893
5791 5794 5797 5800 5802 5805 5807 5810 5812 5815 5817 5819 5822 5824 5826 5828 5830 5832 5834 5836 5838 5840 5841 5843 5845 5847 5848 5850 5851 5853 5854 5856 5857 5859 5861 5862 5863 5865 5866 5868 5869 5870 5871 5873 5874 5875 5877 5878 5879 5880 5882 5883 5884 5884 5885 5886 5887 5888 5889 5889 5890 5890 5891 5892 5893 5893 5894 5894 5894 5894 5895 5895 5895 5894 5894 5894 5894 5895 5895 5895 5894 5894 5894 5893 5893 5893 5892 5892
5789 5792 5795 5797 5800 5803 5805 5808 5810 5813 5815 5818 5820 5822 5824 5826 5828 5830 5832 5834 5836 5838 5840 5842 5844 5845 5847 5848 5850 5852 5853 5855 5856 5858 5859 5861 5862 5864 5865 5867 5868 5869 5870 5872 5873 5874 5876 5877 5878 5879 5880 5882 5882 5883 5884 5885 5886 5887 5888 5888 5889 5890 5890 5891 5892 5892 5893 5893 5894 5894 5894 5894 5894 5894 5893 5893 5894 5894 5894 5893 5893 5893 5892 5892 5892 5892 5892 5891
5787 5790 5793 5795 5798 5801 5804 5806 5809 5811 5813 5816 5818 5820 5822 5824 5827 5829 5831 5833 5835 5837 5838 5840 5842 5844 5846 5847 5849 5850 5852 5853 5855 5856 5858 5860 5861 5863 5864 5866 5867 5868 5870 5871 5872 5874 5875 5876 5877 5878 5879 5880 5881 5882 5883 5884 5885 5886 5887 5887 5888 5889 5889 5890 5891 5891 5892 5892 5893 5893 5893 5893 5893 5893 5892 5892 5893 5893 5892 5892 5892 5892 5891 5891 5891 5891 5890 5890
5785 5787 5790 5793 5796 5798 5801 5804 5806 5809 5811 5814 5816 5818 5820 5823 5825 5827 5829 5831 5833 5835 5837 5839 5841 5842 5844 5846 5847 5849 5850 5852 5853 5855 5857 5858 5860 5861 5863 5865 5866 5867 5869 5870 5871 5873 5874 5875 5876 5877 5878 5879 5880 5881 5882 5883 5884 5885 5886 5887 5887 5888 5889 5889 5890 5890 5890 5891 5891 5892 5892 5892 5892 5891 5891 5891 5891 5891 5891 5891 5891 5891 5891 5890 5890 5889 5889 5888
5782 5785 5788 5791 5793 5796 5799 5801 5804 5807 5809 5811 5814 5816 5818 5821 5823 5825 5827 5829 5831 5833 5835 5837 5839 5841 5842 5844 5846 5847 5848 5850 5852 5853 5855 5857 5858 5860 5862 5863 5865 5866 5868 5869 5870 5872 5873 5874 5875 5877 5877 5879 5880 5880 5881 5882 5883 5884 5885 5886 5886 5887 5888 5888 5889 5889 5889 5890 5890 5890 5890 5890 5890 5890 5890 5890 5890 5890 5890 5890 5890 5890 5890 5889 5889 5888 5887 5887
5779 5782 5785 5788 5791 5793 5796 5799 5801 5804 5807 5809 5812 5814 5816 5818 5820 5823 5825 5827 5829 5831 5833 5835 5837 5839 5841 5842 5844 5846 5847 5848 5850 5852 5854 5855 5857 5859 5860 5862 5863 5865 5866 5868 5869 5871 5872 5873 5874 5875 5876 5877 5878 5879 5880 5881 5882 5883 5884 5885 5885 5886 5887 5887 5888 5888 5888 5889 5889 5889 5889 5889 5889 5888 5888 5889 5889 5889 5889 5889 5888 5888 5888 5888 5887 5887 5886 5885
5775 5778 5782 5785 5787 5790 5793 5796 5799 5801 5804 5807 5809 5812 5814 5816 5818 5820 5822 5824 5826 5829 5831 5833 5835 5837 5839 5840 5842 5844 5845 5847 5849 5850 5852 5854 5855 5857 5859 5860 5862 5863 5865 5866 5868 5869 5871 5872 5873 5874 5875 5876 5877 5878 5879 5880 5881 5882 5883 5883 5884 5885 5886 5886 5887 5887 5887 5888 5888 5888 5888 5888 5888 5887 5886 5888 5888 5887 5887 5887 5887 5887 5886 5886 5886 5885 5885 5884
5771 5775 5778 5781 5784 5787 5790 5793 5796 5798 5801 5804 5806 5809 5812 5814 5816 5818 5820 5822 5824 5826 5828 5830 5833 5835 5837 5838 5840 5842 5843 5845 5847 5848 5850 5852 5854 5855 5857 5859 5860 5862 5863 5865 5867 5868 5869 5870 5872 5873 5874 5875 5876 5877 5878 5879 5880 5880 5881 5882 5883 5883 5884 5885 5886 5886 5886 5887 5887 5887 5887 5887 5887 5885 5885 5887 5887 5886 5886 5886 5886 5885 5885 5884 5884 5883 5883 5882
5767 5771 5774 5777 5780 5783 5786 5789 5792 5795 5798 5801 5803 5806 5809 5811 5814 5816 5818 5820 5822 5824 5826 5828 5830 5832 5834 5836 5838 5839 5841 5843 5845 5846 5848 5850 5852 5854 5855 5857 5859 5860 5862 5864 5865 5866 5868 5869 5870 5871 5873 5874 5875 5876 5877 5877 5878 5879 5880 5881 5881 5882 5883 5883 5884 5885 5885 5885 5885 5885 5886 5886 5885 5884 5884 5885 5885 5885 5885 5885 5884 5884 5883 5883 5882 5881 5881 5880
5763 5766 5770 5773 5777 5780 5783 5786 5789 5792 5795 5797 5800 5803 5805 5808 5810 5813 5815 5817 5819 5821 5823 5826 5828 5830 5832 5834 5836 5837 5839 5841 5842 5844 5846 5848 5850 5852 5854 5856 5857 5859 5860 5862 5863 5865 5866 5867 5869 5870 5871 5872 5873 5874 5875 5876 5877 5878 5878 5879 5880 5881 5881 5882 5883 5883 5883 5884 5884 5884 5884 5884 5884 5882 5883 5884 5884 5883 5883 5883 5883 5882 5881 5881 5880 5879 5878 5878
5759 5763 5766 5769 5773 5776 5779 5782 5785 5788 5791 5794 5796 5799 5802 5804 5807 5809 5812 5814 5816 5818 5821 5823 5825 5827 5830 5832 5833 5835 5837 5838 5840 5842 5844 5846 5848 5850 5852 5854 5855 5857 5859 5860 5862 5863 5864 5865 5867 5868 5869 5870 5871 5872 5873 5874 5875 5876 5877 5878 5878 5879 5880 5880 5881 5882 5882 5882 5882 5882 5883 5883 5882 5881 5881 5882 5882 5882 5882 5882 5881 5880 5880 5879 5878 5877 5876 5876
5756 5759 5762 5766 5769 5772 5776 5779 5782 5784 5787 5790 5793 5795 5798 5801 5804 5806 5808 5811 5813 5815 5818 5820 5822 5825 5827 5829 5830 5832 5834 5836 5838 5840 5842 5844 5846 5848 5850 5852 5854 5855 5857 5858 5860 5861 5862 5864 5865 5866 5867 5869 5870 5871 5872 5872 5873 5874 5875 5876 5876 5877 5878 5878 5879 5880 5880 5880 5880 5880 5882 5882 5879 5880 5880 5880 5880 5880 5880 5880 5879 5879 5878 5877 5876 5875 5874 5874
5752 5755 5759 5762 5765 5769 5772 5775 5778 5781 5784 5787 5790 5792 5795 5798 5800 5803 5805 5807 5809 5812 5814 5817 5819 5822 5824 5826 5828 5830 5832 5834 5836 5838 5840 5842 5844 5846 5847 5849 5851 5853 5855 5856 5857 5859 5860 5861 5863 5864 5865 5867 5868 5869 5870 5871 5871 5872 5873 5874 5875 5876 5876 5876 5877 5877 5877 5878 5878 5878 5880 5880 5878 5878 5878 5878 5878 5878 5878 5878 5877 5877 5876 5875 5874 5873 5872 5872
5748 5751 5755 5758 5761 5764 5767 5771 5774 5777 5780 5784 5787 5789 5792 5794 5797 5799 5802 5804 5806 5808 5811 5813 5816 5818 5820 5823 5825 5827 5829 5831 5833 5835 5837 5839 5841 5843 5845 5847 5849 5850 5852 5854 5855 5857 5858 5859 5861 5862 5863 5864 5865 5867 5868 5868 5869 5870 5871 5872 5873 5874 5874 5874 5874 5875 5875 5875 5875 5875 5878 5879 5876 5875 5876 5876 5876 5876 5876 5876 5875 5874 5874 5873 5872 5871 5870 5869
5743 5747 5750 5754 5757 5760 5763 5766 5770 5773 5776 5779 5782 5785 5788 5791 5793 5796 5798 5801 5803 5805 5808 5810 5812 5815 5817 5819 5822 5824 5826 5828 5830 5832 5834 5836 5838 5840 5842 5844 5846 5848 5850 5851 5853 5854 5855 5857 5858 5859 5861 5862 5863 5864 5865 5866 5867 5867 5868 5870 5871 5871 5872 5872 5872 5872 5872 5872 5872 5872 5874 5877 5875 5873 5873 5873 5873 5874 5874 5873 5872 5872 5871 5870 5869 5869 5868 5866
5739 5742 5746 5749 5753 5756 5759 5763 5766 5769 5772 5775 5778 5781 5784 5787 5789 5792 5795 5797 5799 5802 5804 5806 5809 5811 5813 5816 5819 5820 5822 5825 5827 5829 5831 5833 5835 5837 5839 5841 5843 5845 5847 5848 5850 5851 5853 5854 5855 5857 5858 5859 5861 5862 5862 5863 5864 5865 5867 5868 5869 5869 5869 5870 5870 5869 5869 5869 5869 5870 5871 5874 5872 5871 5871 5871 5871 5872 5872 5871 5870 5869 5868 5868 5866 5865 5864 5863
5735 5738 5742 5745 5748 5752 5755 5758 5762 5764 5768 5771 5774 5777 5780 5783 5785 5788 5790 5793 5795 5798 5800 5802 5805 5807 5810 5813 5815 5817 5819 5822 5824 5826 5828 5830 5832 5834 5836 5838 5840 5842 5843 5845 5847 5848 5850 5851 5853 5854 5855 5857 5858 5858 5859 5860 5862 5863 5864 5865 5866 5866 5867 5867 5867 5866 5866 5866 5866 5867 5868 5870 5870 5869 5868 5868 5868 5869 5869 5868 5867 5866 5866 5864 5863 5862 5861 5860
5731 5734 5737 5741 5744 5747 5751 5754 5757 5760 5764 5767 5770 5773 5776 5778 5781 5784 5786 5789 5791 5793 5796 5798 5800 5803 5806 5809 5811 5813 5816 5818 5820 5822 5824 5826 5828 5830 5832 5834 5836 5838 5840 5841 5843 5845 5847 5849 5850 5851 5853 5854 5854 5855 5856 5858 5860 5861 5861 5862 5863 5864 5864 5864 5864 5863 5863 5863 5863 5864 5864 5866 5867 5867 5865 5864 5865 5867 5866 5865 5864 5864 5863 5861 5860 5858 5857 5857
5727 5730 5733 5737 5740 5743 5747 5750 5753 5756 5760 5762 5765 5768 5771 5774 5776 5779 5781 5784 5786 5788 5791 5793 5796 5799 5802 5804 5807 5809 5811 5814 5816 5818 5820 5822 5824 5826 5828 5830 5832 5834 5836 5838 5840 5842 5844 5845 5847 5849 5850 5850 5851 5852 5854 5856 5857 5857 5858 5859 5860 5861 5861 5861 5861 5861 5861 5859 5861 5862 5860 5862 5864 5864 5863 5862 5862 5863 5863 5862 5862 5861 5860 5858 5856 5855 5854 5853
5722 5725 5729 5732 5736 5739 5742 5745 5749 5752 5755 5758 5761 5764 5767 5769 5771 5773 5776 5778 5780 5784 5787 5789 5792 5795 5797 5800 5803 5805 5807 5810 5812 5814 5816 5818 5820 5822 5824 5827 5829 5831 5833 5835 5837 5838 5840 5841 5843 5845 5845 5846 5848 5849 5851 5852 5853 5854 5855 5856 5857 5857 5857 5857 5858 5858 5857 5856 5858 5858 5857 5858 5859 5860 5861 5860 5860 5860 5859 5859 5859 5858 5857 5855 5852 5851 5850 5849
5717 5721 5724 5728 5731 5735 5737 5741 5744 5747 5751 5753 5756 5759 5761 5763 5766 5769 5771 5773 5775 5779 5782 5785 5788 5791 5793 5796 5798 5801 5804 5806 5808 5810 5812 5815 5817 5818 5821 5823 5825 5827 5829 5831 5832 5834 5836 5838 5840 5841 5841 5842 5844 5846 5848 5849 5850 5851 5852 5853 5853 5853 5854 5854 5854 5854 5854 5853 5854 5855 5853 5854 5855 5855 5857 5858 5858 5857 5856 5856 5856 5855 5854 5851 5849 5848 5847 5846
5711 5715 5719 5723 5727 5730 5733 5736 5740 5743 5746 5748 5751 5753 5755 5758 5761 5763 5765 5767 5770 5774 5777 5781 5784 5786 5789 5792 5794 5797 5800 5802 5804 5806 5808 5811 5812 5814 5816 5818 5820 5822 5824 5826 5828 5829 5832 5834 5835 5836 5837 5839 5841 5843 5844 5846 5847 5848 5848 5849 5849 5849 5849 5850 5850 5851 5851 5851 5850 5850 5849 5849 5850 5851 5854 5855 5854 5854 5854 5854 5854 5852 5850 5848 5847 5846 5845 5843
5707 5710 5713 5718 5721 5725 5729 5732 5736 5739 5741 5743 5745 5748 5751 5753 5755 5757 5760 5761 5765 5769 5773 5776 5779 5782 5785 5787 5790 5793 5795 5798 5800 5802 5804 5806 5808 5810 5812 5813 5815 5818 5820 5821 5823 5825 5828 5829 5830 5832 5833 5835 5837 5839 5841 5842 5843 5844 5845 5845 5845 5845 5845 5846 5847 5847 5848 5848 5847 5847 5843 5842 5845 5848 5851 5853 5851 5851 5851 5851 5851 5849 5846 5844 5844 5843 5842 5841
5703 5706 5709 5712 5716 5720 5724 5727 5731 5733 5736 5739 5740 5743 5746 5748 5750 5752 5754 5755 5759 5765 5768 5771 5775 5778 5781 5783 5786 5789 5791 5794 5796 5798 5800 5802 5803 5805 5807 5809 5811 5814 5815 5817 5818 5821 5823 5825 5826 5828 5830 5832 5834 5836 5837 5837 5838 5840 5841 5841 5840 5841 5841 5842 5843 5843 5844 5845 5845 5844 5839 5834 5837 5842 5848 5849 5848 5848 5848 5848 5847 5845 5842 5841 5841 5840 5839 5838
5699 5702 5705 5708 5711 5715 5718 5722 5725 5727 5731 5734 5735 5739 5741 5743 5746 5747 5748 5748 5753 5760 5764 5767 5770 5773 5777 5780 5783 5784 5785 5789 5792 5793 5795 5797 5798 5801 5803 5805 5807 5809 5810 5812 5814 5817 5820 5821 5822 5824 5826 5829 5831 5832 5832 5832 5833 5835 5836 5836 5836 5837 5838 5838 5838 5839 5840 5840 5841 5841 5836 5830 5829 5835 5843 5844 5844 5846 5847 5846 5844 5841 5839 5838 5837 5836 5835 5834
5693 5697 5701 5704 5708 5711 5713 5717 5719 5723 5727 5727 5729 5734 5736 5738 5740 5742 5744 5742 5747 5757 5761 5762 5765 5770 5774 5776 5778 5779 5780 5787 5789 5788 5791 5792 5794 5797 5798 5801 5803 5805 5806 5807 5809 5814 5817 5817 5819 5821 5822 5824 5826 5827 5827 5827 5828 5830 5832 5833 5833 5833 5834 5834 5834 5835 5835 5836 5837 5835 5832 5828 5823 5827 5835 5837 5840 5843 5843 5842 5840 5839 5837 5835 5833 5832 5831 5831
5688 5691 5695 5700 5704 5706 5709 5713 5716 5719 5720 5721 5725 5728 5729 5733 5733 5736 5737 5734 5743 5754 5756 5758 5762 5766 5769 5770 5772 5773 5776 5783 5783 5782 5786 5787 5788 5791 5793 5796 5798 5799 5800 5802 5806 5810 5811 5812 5814 5815 5816 5818 5821 5822 5822 5823 5824 5826 5828 5828 5828 5829 5829 5829 5830 5830 5831 5832 5831 5830 5828 5824 5820 5821 5825 5830 5835 5838 5837 5837 5836 5834 5833 5832 5830 5828 5827 5827
5682 5686 5690 5694 5697 5701 5706 5710 5713 5714 5715 5718 5721 5722 5724 5726 5727 5730 5729 5730 5741 5749 5751 5756 5758 5760 5763 5765 5767 5768 5772 5776 5776 5778 5780 5780 5782 5785 5787 5791 5792 5793 5795 5797 5801 5804 5805 5807 5808 5809 5811 5814 5816 5817 5818 5819 5820 5822 5824 5823 5824 5824 5824 5825 5825 5826 5827 5826 5826 5826 5824 5821 5816 5814 5819 5826 5831 5831 5831 5831 5831 5830 5829 5827 5826 5825 5824 5824
5677 5681 5685 5688 5692 5697 5702 5706 5708 5708 5711 5713 5714 5717 5719 5719 5722 5723 5721 5729 5742 5744 5745 5751 5753 5755 5758 5760 5762 5764 5767 5769 5771 5773 5774 5775 5778 5780 5782 5785 5786 5788 5790 5792 5796 5798 5799 5802 5803 5804 5808 5810 5811 5812 5814 5815 5816 5817 5818 5818 5818 5818 5819 5820 5820 5822 5821 5818 5821 5822 5819 5818 5810 5805 5814 5824 5826 5826 5825 5824 5824 5824 5824 5823 5822 5821 5820 5820
5671 5675 5678 5682 5687 5692 5697 5700 5701 5703 5705 5707 5708 5711 5712 5713 5715 5714 5718 5733 5740 5736 5739 5746 5749 5753 5754 5755 5757 5759 5761 5763 5765 5767 5769 5772 5773 5775 5778 5780 5781 5783 5785 5788 5792 5793 5795 5797 5799 5801 5804 5806 5807 5808 5809 5809 5811 5812 5812 5813 5814 5814 5814 5815 5815 5815 5813 5812 5818 5818 5815 5813 5803 5801 5812 5819 5819 5821 5821 5819 5818 5818 5817 5817 5817 5817 5816 5815
5666 5669 5672 5677 5681 5686 5691 5695 5696 5696 5698 5700 5702 5703 5706 5706 5705 5708 5720 5732 5731 5727 5734 5741 5746 5749 5749 5749 5751 5753 5756 5757 5760 5762 5764 5767 5768 5771 5774 5776 5779 5780 5781 5786 5788 5788 5790 5792 5794 5796 5798 5800 5801 5802 5803 5804 5806 5807 5808 5809 5809 5809 5809 5808 5807 5807 5807 5809 5813 5812 5810 5804 5797 5801 5812 5814 5813 5815 5815 5815 5814 5811 5810 5811 5811 5811 5811 5810
5660 5664 5667 5671 5675 5680 5685 5688 5688 5689 5691 5693 5694 5696 5699 5696 5697 5709 5721 5724 5721 5723 5731 5736 5739 5741 5741 5743 5745 5748 5750 5752 5754 5756 5758 5761 5763 5766 5769 5771 5774 5775 5777 5781 5782 5782 5784 5786 5788 5789 5791 5794 5795 5797 5798 5800 5801 5802 5803 5804 5803 5803 5801 5800 5801 5802 5803 5806 5807 5806 5803 5796 5794 5801 5808 5809 5810 5810 5810 5811 5809 5807 5805 5805 5806 5805 5805 5804
5655 5658 5661 5666 5670 5673 5679 5681 5682 5684 5686 5686 5686 5689 5689 5687 5696 5710 5715 5716 5718 5721 5726 5727 5728 5732 5735 5738 5741 5743 5745 5747 5749 5751 5753 5755 5757 5761 5765 5766 5769 5771 5773 5775 5775 5777 5778 5780 5784 5785 5786 5789 5790 5793 5794 5795 5796 5796 5797 5797 5797 5797 5795 5795 5797 5797 5797 5799 5799 5799 5796 5792 5794 5798 5800 5803 5806 5806 5805 5805 5804 5802 5801 5800 5801 5800 5799 5799
5649 5652 5655 5659 5662 5666 5672 5675 5676 5679 5680 5679 5679 5678 5678 5683 5697 5706 5707 5711 5714 5716 5719 5718 5718 5724 5728 5732 5736 5738 5739 5742 5744 5746 5747 5750 5753 5757 5761 5763 5766 5768 5770 5770 5771 5773 5773 5776 5781 5781 5782 5785 5786 5788 5789 5789 5789 5790 5792 5791 5792 5794 5793 5791 5791 5791 5792 5791 5791 5792 5790 5790 5793 5793 5793 5797 5800 5801 5801 5800 5799 5798 5797 5797 5796 5795 5793 5792
5643 5646 5649 5653 5656 5662 5667 5669 5671 5672 5672 5672 5669 5666 5673 5685 5695 5699 5701 5705 5707 5709 5713 5710 5711 5717 5722 5726 5730 5732 5734 5736 5738 5740 5742 5745 5748 5752 5756 5759 5761 5763 5765 5766 5767 5768 5768 5771 5775 5775 5777 5780 5780 5781 5782 5782 5783 5784 5785 5785 5788 5789 5787 5785 5785 5786 5787 5784 5784 5786 5784 5786 5788 5786 5789 5794 5795 5795 5795 5794 5794 5794 5794 5794 5793 5791 5787 5785
5636 5640 5643 5648 5653 5657 5661 5663 5666 5665 5665 5664 5659 5662 5674 5683 5689 5692 5694 5697 5700 5704 5706 5704 5705 5710 5715 5719 5723 5726 5729 5730 5732 5734 5737 5740 5742 5747 5752 5754 5756 5758 5761 5762 5761 5762 5763 5765 5767 5769 5770 5772 5774 5774 5775 5776 5777 5777 5778 5781 5783 5782 5781 5780 5779 5781 5781 5778 5779 5780 5779 5780 5781 5780 5785 5791 5790 5789 5789 5788 5789 5789 5789 5789 5789 5787 5783 5780
5630 5633 5637 5643 5648 5652 5655 5658 5659 5658 5657 5653 5652 5660 5670 5676 5681 5684 5685 5689 5693 5696 5698 5697 5699 5703 5707 5711 5716 5719 5721 5723 5725 5728 5732 5733 5736 5743 5747 5748 5751 5753 5756 5756 5755 5756 5758 5758 5760 5762 5763 5765 5767 5767 5768 5770 5771 5771 5774 5776 5776 5775 5775 5776 5774 5774 5775 5773 5772 5775 5774 5774 5775 5778 5783 5784 5782 5782 5783 5783 5784 5783 5782 5784 5784 5782 5779 5776
5623 5626 5632 5638 5642 5645 5649 5651 5652 5650 5647 5644 5647 5656 5665 5671 5674 5675 5677 5683 5685 5686 5689 5692 5695 5696 5698 5703 5708 5710 5712 5715 5719 5721 5724 5726 5731 5737 5741 5742 5745 5747 5748 5748 5748 5750 5752 5751 5753 5755 5756 5757 5758 5760 5763 5765 5766 5767 5768 5770 5770 5769 5769 5769 5769 5768 5769 5767 5766 5768 5768 5768 5772 5777 5778 5777 5776 5776 5777 5778 5779 5778 5776 5777 5779 5778 5776 5773
5616 5620 5627 5632 5634 5637 5642 5644 5643 5639 5636 5638 5644 5653 5660 5664 5665 5668 5673 5677 5676 5678 5683 5686 5688 5688 5691 5696 5700 5703 5705 5708 5711 5714 5716 5720 5725 5730 5733 5735 5738 5740 5741 5740 5740 5743 5744 5744 5746 5747 5747 5748 5751 5755 5758 5760 5761 5761 5762 5762 5763 5763 5762 5762 5762 5762 5762 5762 5761 5763 5763 5763 5769 5773 5771 5770 5770 5770 5771 5772 5772 5772 5771 5772 5774 5774 5772 5769
5609 5614 5622 5625 5625 5629 5633 5633 5632 5629 5629 5634 5641 5648 5653 5655 5658 5664 5667 5668 5668 5672 5677 5679 5680 5683 5686 5689 5692 5697 5699 5701 5704 5707 5709 5714 5719 5723 5726 5729 5731 5733 5733 5732 5734 5736 5737 5737 5739 5740 5740 5743 5747 5750 5752 5752 5753 5753 5754 5755 5756 5756 5756 5755 5754 5754 5756 5757 5760 5761 5759 5759 5765 5767 5765 5764 5763 5763 5765 5767 5765 5765 5766 5766 5769 5770 5767 5764
5601 5608 5616 5617 5616 5620 5623 5622 5623 5623 5624 5630 5636 5641 5644 5648 5653 5658 5659 5660 5662 5665 5669 5671 5673 5677 5680 5683 5686 5689 5690 5693 5696 5699 5703 5709 5714 5718 5721 5721 5723 5725 5725 5725 5728 5731 5731 5730 5730 5731 5734 5737 5739 5741 5742 5743 5744 5745 5746 5747 5748 5748 5748 5748 5748 5751 5754 5754 5756 5756 5753 5754 5760 5763 5760 5757 5757 5758 5759 5759 5760 5760 5759 5760 5763 5764 5761 5759
5595 5603 5607 5606 5607 5610 5611 5611 5614 5615 5618 5625 5630 5632 5636 5642 5646 5649 5652 5655 5656 5659 5663 5665 5668 5671 5674 5678 5679 5680 5683 5686 5688 5692 5698 5702 5707 5712 5712 5712 5713 5715 5717 5718 5721 5723 5722 5720 5722 5724 5727 5729 5730 5732 5735 5736 5736 5736 5737 5739 5741 5743 5745 5745 5746 5748 5748 5747 5750 5749 5745 5748 5754 5758 5756 5752 5752 5754 5753 5752 5754 5754 5753 5754 5755 5757 5755 5753
5588 5594 5596 5597 5599 5600 5599 5602 5606 5608 5612 5618 5621 5624 5630 5634 5637 5642 5647 5649 5651 5654 5657 5659 5663 5665 5668 5671 5672 5673 5677 5679 5681 5687 5692 5695 5700 5705 5705 5705 5706 5708 5710 5712 5714 5715 5714 5714 5717 5718 5719 5720 5722 5723 5725 5726 5727 5728 5732 5736 5737 5739 5741 5739 5740 5741 5739 5742 5745 5741 5736 5743 5750 5752 5751 5748 5748 5749 5748 5746 5747 5748 5748 5748 5748 5750 5750 5748
5579 5583 5586 5589 5592 5591 5592 5598 5601 5602 5607 5611 5612 5617 5622 5625 5630 5636 5639 5641 5644 5648 5650 5653 5657 5659 5662 5664 5665 5667 5669 5671 5675 5681 5684 5687 5692 5697 5698 5698 5699 5701 5703 5705 5706 5706 5706 5708 5709 5708 5709 5711 5712 5715 5719 5722 5723 5724 5729 5731 5732 5733 5733 5732 5734 5732 5730 5736 5737 5730 5731 5740 5746 5746 5745 5745 5744 5742 5741 5741 5742 5742 5742 5742 5743 5744 5743 5741
5569 5572 5577 5581 5583 5582 5586 5591 5592 5593 5599 5604 5605 5610 5614 5617 5625 5630 5630 5633 5637 5641 5644 5647 5651 5653 5654 5656 5659 5660 5663 5666 5669 5672 5675 5679 5684 5688 5689 5690 5691 5693 5695 5696 5697 5697 5696 5697 5699 5699 5700 5703 5708 5711 5714 5716 5716 5717 5722 5723 5723 5724 5724 5725 5724 5721 5725 5729 5726 5724 5729 5734 5738 5740 5739 5739 5738 5735 5734 5734 5735 5736 5736 5737 5738 5738 5736 5734
5559 5563 5570 5573 5574 5575 5579 5583 5584 5587 5594 5597 5598 5602 5607 5612 5617 5619 5620 5626 5631 5635 5637 5640 5643 5645 5647 5651 5654 5655 5658 5661 5662 5664 5668 5673 5676 5679 5680 5681 5683 5686 5688 5688 5688 5688 5687 5688 5691 5693 5694 5698 5705 5707 5707 5707 5708 5710 5714 5715 5715 5717 5717 5715 5713 5716 5722 5718 5714 5722 5728 5724 5729 5735 5733 5733 5733 5729 5726 5728 5730 5731 5731 5731 5731 5730 5730 5729
5551 5556 5563 5565 5565 5567 5572 5576 5579 5583 5587 5588 5588 5594 5600 5604 5607 5609 5614 5621 5625 5627 5629 5630 5634 5639 5643 5647 5648 5649 5652 5654 5654 5657 5662 5666 5669 5670 5671 5673 5676 5678 5681 5682 5682 5681 5679 5680 5686 5688 5687 5693 5701 5701 5698 5700 5702 5704 5705 5706 5708 5709 5707 5706 5707 5713 5714 5706 5706 5720 5721 5714 5721 5728 5727 5727 5727 5722 5721 5723 5726 5727 5726 5724 5723 5723 5723 5723
5545 5549 5554 5555 5556 5560 5565 5569 5572 5575 5578 5579 5581 5586 5592 5597 5601 5605 5610 5614 5614 5617 5620 5622 5629 5636 5638 5640 5641 5641 5644 5646 5648 5652 5657 5660 5662 5663 5664 5666 5668 5672 5674 5675 5676 5674 5672 5675 5681 5681 5680 5686 5693 5693 5691 5692 5693 5694 5695 5697 5699 5700 5700 5700 5701 5705 5704 5697 5702 5712 5711 5709 5716 5720 5720 5721 5720 5718 5719 5719 5719 5720 5719 5718 5717 5717 5717 5716
5538 5541 5545 5546 5547 5553 5557 5560 5562 5566 5570 5571 5573 5579 5585 5589 5594 5599 5602 5604 5607 5611 5614 5617 5625 5630 5630 5631 5632 5632 5637 5641 5644 5648 5652 5653 5654 5656 5658 5659 5663 5667 5668 5667 5669 5668 5667 5670 5675 5674 5671 5675 5683 5685 5682 5681 5683 5684 5685 5688 5691 5692 5692 5691 5692 5696 5695 5692 5698 5705 5702 5703 5709 5713 5715 5715 5712 5713 5714 5712 5712 5713 5712 5712 5711 5711 5710 5710
5530 5533 5536 5536 5538 5544 5548 5551 5554 5557 5561 5564 5566 5572 5577 5581 5588 5593 5593 5595 5600 5604 5607 5611 5619 5622 5621 5621 5623 5626 5633 5637 5638 5641 5644 5644 5646 5650 5652 5654 5657 5659 5660 5660 5660 5661 5661 5663 5666 5666 5662 5666 5676 5677 5673 5674 5674 5672 5675 5682 5686 5685 5683 5683 5687 5691 5690 5689 5693 5695 5692 5696 5705 5709 5708 5706 5704 5704 5705 5705 5706 5705 5705 5705 5705 5704 5703 5704
5521 5523 5526 5527 5529 5535 5539 5543 5545 5546 5551 5559 5564 5567 5569 5574 5581 5583 5581 5585 5591 5596 5600 5605 5611 5612 5611 5613 5617 5623 5628 5629 5629 5632 5634 5635 5638 5641 5643 5646 5648 5648 5650 5652 5652 5653 5655 5655 5658 5659 5654 5660 5670 5668 5665 5666 5661 5658 5669 5681 5682 5679 5677 5678 5681 5684 5684 5684 5685 5684 5686 5694 5700 5699 5697 5697 5697 5697 5698 5699 5699 5698 5698 5698 5698 5698 5698 5699